map of CIX home
CIX - Airport
Location
City:  Chiclayo, Lambayeque, Perú
Name:Captaán FAP José Abelardo Quiñones Gonzáles International Airport
ICAO:SPHI
IATA:CIX

Details
Type:Airport (Aerodrome, Airfield)
Use:Public/Civil, International (customs port of entry)
Latitude:6°47'15"S (-6.787477)
Longitude:79°49'41"W (-79.828099)
Elevation:91 ft (28 m)
Variation:1.43°W (WMM2015v2 magnetic declination)
-0.16° annual change
Runways:1
Longest:8202 × 148 ft (2500 × 45 m), paved

Time
Time Zone:UTC-5
Local Time:

Weather
METAR:SPHI 041400Z 16011KT 9999 OVC050 27/20 Q1011 RMK BIRD HAZARD RWY 19/01 PP000
TAF:SPHI 041100Z 0412/0512 18008KT 9999 BKN050 TX31/0419Z TN24/0511Z
FM041400 18010KT CAVOK
FM042000 19015KT CAVOK
FM050300 18008KT 9999 BKN050

Related Locations
Nearby:
Farthest:VTSA: 12444 mi / 20027 km
Satun [Khoun Khan], 91, TH

Find:

   beyond  
but within

Other Information
Maps:
NOTAMs:
Links:
Sources:

  
  • flag of Perú
  • flag of Lambayeque
  

Sectional Chart

Flight Planning
at skyvector.com

Satellite Image

Google Maps Satellite view

 

Copyright © 2004-2019 Karl L. Swartz. All rights reserved.
The Great Circle Mapper name and logo are trademarks of the Great Circle Mapper.
All other trademarks mentioned herein belong to their respective owners.
Please see credits for attibutions and further copyright information.

  Follow gcmap on Facebook Follow gcmap on Twitter GCmap on LinkedIn

hCard Microformat

Geo Microformat